We try to provide you some weather data from local stations. This data is not for flight planning purposes!

Weather at LROD – Oradea airport (8,5NM / 16km SW of our airfield)

METAR

LROD 170900Z 21016KT CAVOK 23/17 Q1009

TAF

TAF LROD 312030Z 3121/0203 CNL

Temperature

23

QNH

1009

Webcams

Webcam at Oradea Airport (freecam.ro)

Weather forcasts

Topweather forecast for Ineu, Bihor

Forcast from wetterzentrale.de

Wind animation

Ventusky

Satelite images

Meteo Romania – Precipitation / Radar image

Meteo Romania – Cloud coverage

Sat 24 – Precipitation / Radar image

Sat 24 – Cloud coverage

Soaring forecast

RASP Forecast by Dragos

fcst24